Wind_Speed
28 28 27 27 26 25 24 23 22 22 22 22 22 21 20 21 22 23 24 24 25 26 26 26 28 29 31 33 36 39 40 40 35 31 29 32 34 37 39 40 40 38 37 39 39 38 37 38 37 35 34 35 33 30 27 26 27 29 29 28 28 29 31 32 33 33 33 32 30
28 29 28 27 27 26 24 22 22 22 22 23 22 22 21 21 22 23 24 25 26 26 26 25 28 30 32 34 36 38 40 40 36 32 29 30 31 34 37 37 37 36 36 37 39 38 38 38 37 33 30 30 31 30 28 27 27 27 27 27 28 29 31 32 33 32 32 31 30
28 28 28 28 27 25 23 22 22 23 23 23 23 22 21 21 22 22 23 25 26 26 26 25 27 30 33 35 36 38 39 39 37 34 31 30 31 33 36 36 35 34 34 35 37 38 38 38 36 32 28 27 28 29 29 29 28 27 26 27 27 28 30 32 31 30 29 29 30
27 28 28 28 28 27 24 22 23 23 24 23 24 23 22 22 21 22 23 24 25 26 26 26 28 30 32 35 36 36 37 37 37 36 34 32 31 32 35 35 33 33 33 34 36 38 39 38 35 30 27 26 27 29 30 30 29 27 26 27 27 28 29 30 30 29 28 28 29
27 27 27 28 28 27 25 23 23 24 24 23 24 24 23 23 22 21 22 23 24 26 27 27 28 30 32 35 36 35 35 34 35 36 35 32 31 31 32 33 32 31 32 34 36 37 38 38 35 31 28 27 28 29 30 30 29 28 26 26 27 28 29 30 29 29 28 28 29
27 27 27 27 28 27 25 24 24 24 24 23 24 24 24 24 23 22 22 23 24 26 27 27 28 30 32 35 36 35 34 33 33 34 34 32 31 30 30 30 31 31 32 34 35 36 38 38 35 32 29 28 28 28 29 29 29 28 26 26 27 28 29 29 29 29 29 29 30
26 26 26 26 27 26 24 24 24 24 24 24 24 25 25 25 25 24 24 24 25 26 26 26 28 30 32 34 36 36 34 32 32 33 33 33 32 31 30 30 30 31 32 33 34 35 36 37 35 33 31 29 27 26 26 27 28 27 26 25 27 27 28 29 29 29 29 29 30
26 26 26 26 27 26 25 24 25 25 24 24 24 26 26 27 26 26 26 25 26 26 25 25 27 30 32 34 36 36 35 34 32 32 33 33 33 32 31 31 31 32 33 33 33 33 34 36 34 32 30 29 27 25 25 26 27 27 26 25 26 27 28 28 29 29 29 30 30
25 26 26 25 27 26 25 24 25 25 25 24 25 26 27 27 27 27 27 26 27 26 25 25 27 30 32 33 35 37 37 36 34 33 33 33 33 33 32 32 32 33 33 33 33 32 32 33 32 30 29 29 28 26 25 25 26 26 26 26 25 26 27 28 29 29 29 30 30
25 25 25 25 26 26 25 24 25 25 25 24 25 26 27 27 27 27 27 27 27 25 24 25 28 31 32 33 34 36 37 37 36 35 34 34 34 33 33 33 33 33 33 33 32 32 31 31 29 28 28 27 27 26 25 25 25 25 25 24 25 25 27 27 28 30 30 30 30
25 26 25 25 26 26 25 24 24 25 25 24 24 25 26 26 27 27 26 26 25 24 25 27 29 32 33 34 34 36 37 37 37 37 36 35 35 34 33 32 33 33 33 32 32 31 31 30 29 28 27 27 27 27 26 25 25 25 25 24 24 25 26 28 29 30 30 30 30
26 26 26 25 26 26 25 24 24 24 24 24 24 24 25 26 26 26 26 24 24 24 25 27 29 32 33 33 34 35 36 37 37 38 38 38 37 35 33 32 32 32 32 32 31 30 30 30 30 29 28 28 27 27 27 27 26 25 25 25 25 25 26 27 28 29 29 29 29
26 26 26 25 25 25 25 24 23 23 23 23 23 23 24 24 25 25 25 24 24 24 24 26 28 30 31 32 33 34 35 36 37 38 38 39 38 37 34 33 32 31 31 31 30 30 29 30 30 30 29 29 28 28 28 27 26 25 25 26 26 27 27 28 28 29 29 29 28
25 25 25 25 26 25 25 24 23 22 22 22 23 22 23 23 24 25 25 25 25 24 24 24 26 28 30 31 31 32 34 34 35 36 37 39 39 38 36 34 33 32 31 31 30 30 29 29 29 29 30 30 29 29 28 27 27 26 27 27 28 28 29 29 29 29 29 29 28
24 25 25 25 25 25 24 24 23 22 22 23 23 22 22 23 24 25 25 25 25 25 24 24 25 26 28 30 30 32 33 33 33 33 34 36 38 38 38 36 35 34 32 31 31 30 30 30 29 29 29 29 29 29 28 27 27 27 28 29 30 30 30 30 30 29 29 29 28
24 24 25 25 25 25 24 24 23 23 23 23 23 22 22 22 23 24 25 25 25 24 24 24 24 26 27 29 30 31 32 33 32 32 32 34 35 37 37 36 36 36 34 33 32 32 31 31 30 29 28 28 29 28 27 27 27 28 29 30 30 31 31 31 31 30 30 29 28
24 24 25 25 25 25 25 25 24 23 23 24 23 23 22 22 23 24 25 25 24 24 24 24 24 25 26 28 29 31 32 32 33 32 31 32 34 35 35 35 35 36 35 34 33 32 32 32 31 29 28 28 28 28 28 27 27 28 29 30 31 32 32 32 32 31 31 30 29
25 25 25 26 26 26 26 25 24 24 24 24 24 23 23 23 22 23 24 25 24 24 24 24 24 25 25 27 28 30 31 32 33 33 32 32 33 34 34 34 34 34 34 34 34 33 33 32 31 30 30 29 29 29 28 28 28 29 30 31 32 32 33 33 33 33 32 32 31
26 26 26 27 27 27 27 26 25 25 25 25 24 24 23 23 23 23 24 24 25 24 24 24 24 24 25 26 26 28 29 31 32 32 32 32 33 33 33 33 34 34 33 33 34 34 33 33 32 31 31 30 29 29 29 29 28 28 29 31 32 32 33 33 33 34 34 33 32
26 27 27 27 27 27 27 27 26 25 25 25 24 24 24 24 24 23 23 24 25 25 24 24 24 24 24 25 25 26 27 28 29 30 31 31 32 33 33 33 34 34 34 33 33 33 34 33 33 32 31 30 30 29 29 29 28 28 29 30 31 31 32 32 33 33 33 33 32
26 26 27 27 27 27 26 26 25 25 25 24 24 24 24 24 24 24 24 24 25 25 24 24 23 23 24 25 25 24 24 25 26 27 28 29 31 33 34 34 34 34 34 33 33 33 33 32 32 31 31 30 29 29 29 29 29 30 30 30 30 30 30 30 31 33 33 34 33
25 26 26 26 26 26 26 25 25 24 24 24 24 24 24 24 24 24 24 24 24 25 24 24 24 24 24 25 25 25 24 23 23 24 25 26 29 31 33 34 34 33 33 33 32 31 31 31 31 30 30 29 29 28 28 29 30 31 31 31 31 31 30 30 31 33 35 36 37
24 24 24 25 25 25 25 25 24 23 23 23 24 24 24 24 24 24 24 24 24 25 25 25 24 24 24 25 25 25 24 23 23 22 23 23 25 28 30 32 33 33 33 33 32 31 30 30 30 31 30 30 29 28 28 29 30 32 33 33 33 32 32 31 32 33 34 36 38
23 23 23 23 24 24 25 25 24 24 23 23 23 23 23 24 24 23 23 23 24 25 25 25 25 25 25 25 25 25 25 24 23 22 22 22 23 24 27 29 31 32 32 33 32 32 32 31 31 32 32 31 30 29 29 30 31 32 33 33 33 33 32 31 31 31 32 33 35
23 23 22 22 23 24 25 25 25 24 23 23 23 23 23 24 23 23 23 23 24 25 25 25 25 25 25 25 25 25 25 24 24 23 22 22 22 23 24 26 28 29 30 31 32 33 33 33 33 33 33 32 31 30 30 30 31 32 33 33 32 31 30 30 29 29 30 31 31
22 22 22 23 23 24 25 25 25 24 24 23 24 24 24 24 23 23 23 23 24 25 26 26 25 25 25 24 24 25 25 24 24 24 23 23 23 23 23 25 26 27 28 30 31 33 34 34 35 34 33 32 31 30 29 30 30 31 31 31 30 30 28 27 27 27 28 28 29
23 23 23 23 24 24 25 26 25 25 24 24 24 24 24 24 23 23 23 23 24 25 25 25 25 24 24 24 23 24 24 24 24 24 24 23 23 23 24 24 25 27 28 30 31 32 33 34 34 34 33 31 29 28 28 28 28 29 28 28 28 28 27 26 26 26 26 26 27
24 24 23 23 23 24 25 25 25 24 24 24 24 24 24 24 23 23 23 23 24 24 24 24 24 23 23 22 22 23 24 24 24 24 24 24 24 24 24 25 26 27 28 30 31 32 33 34 33 33 32 30 28 27 26 26 26 26 26 25 25 25 25 25 25 25 25 25 25
24 24 23 23 23 24 24 24 25 25 24 24 24 24 24 24 23 23 22 23 23 23 23 23 22 21 21 21 22 22 23 23 24 24 24 24 24 24 24 25 26 27 28 30 31 33 34 34 33 33 32 31 28 26 24 23 23 22 22 22 22 23 23 24 24 24 24 25 26
24 23 22 22 23 23 24 24 25 25 25 24 23 23 23 23 23 23 23 23 23 23 23 22 21 21 21 21 22 22 22 23 23 24 24 24 24 24 24 24 25 26 27 29 31 32 33 34 33 33 32 31 29 26 24 22 21 21 21 21 22 23 23 24 25 25 25 25 26
24 23 22 22 23 23 24 25 25 25 24 23 22 22 22 22 23 23 23 23 23 24 24 23 22 22 22 22 22 22 22 23 23 23 24 24 25 25 25 24 24 25 26 27 29 30 32 32 32 32 31 31 30 28 26 24 23 21 20 19 19 19 20 20 21 21 22 23 24
24 23 22 22 22 23 24 24 24 24 24 23 22 22 22 22 23 24 24 24 24 23 23 23 23 22 22 23 23 23 23 23 23 24 24 24 25 25 25 25 25 24 23 24 25 27 28 30 30 31 31 30 30 30 28 24 20 18 15 13 12 11 12 12 13 14 16 17 18
24 23 23 22 22 22 23 23 24 24 23 23 22 22 22 22 23 23 23 23 23 23 23 23 23 23 23 23 23 23 23 23 24 24 25 25 25 25 26 25 24 23 22 22 22 24 25 27 28 29 30 30 31 29 26 19 14 11 9 8 7 8 8 8 9 9 10 11 14
24 24 23 23 22 22 23 23 23 24 23 23 22 22 22 22 23 23 23 23 23 23 23 23 24 24 23 23 23 23 23 24 24 24 25 25 25 25 25 25 23 22 21 21 22 23 24 25 26 27 28 29 29 26 21 14 10 8 8 7 7 7 7 7 7 7 8 9 12
25 24 24 23 23 23 23 23 23 24 23 23 23 22 23 23 23 23 23 23 22 22 22 23 23 23 23 22 23 23 23 23 23 23 22 22 22 23 23 22 21 21 21 21 23 23 24 24 25 25 25 24 23 20 17 14 11 10 10 9 9 8 8 7 7 8 9 10 12
25 25 25 24 24 24 24 24 24 24 23 23 23 23 23 23 23 23 23 22 22 22 22 22 22 22 21 20 19 18 18 18 17 17 15 15 15 16 17 17 17 18 20 22 23 24 24 24 24 23 21 19 17 17 17 16 14 13 11 10 11 11 11 10 10 10 11 12 13
25 25 25 25 25 25 25 25 24 24 24 24 24 23 23 23 23 22 22 22 22 21 21 21 21 20 18 16 12 8 6 6 8 9 9 9 9 9 10 12 13 15 18 21 22 23 24 23 23 21 18 16 16 18 18 17 16 15 14 13 14 14 14 14 14 13 13 13 13
25 25 26 25 25 25 25 25 25 25 25 25 24 24 23 23 22 22 22 22 22 21 20 19 19 17 15 13 11 8 6 6 7 7 7 6 6 7 8 9 10 13 16 19 20 21 21 21 20 20 19 18 19 20 20 18 17 17 18 19 19 19 19 19 18 17 16 15 15
25 26 26 25 25 25 26 26 26 26 26 25 24 24 23 23 22 21 21 21 20 19 18 16 14 14 14 14 13 11 10 10 10 10 8 7 6 6 7 7 9 11 14 16 16 17 17 17 17 18 19 20 22 22 21 20 19 20 22 23 23 24 24 23 23 23 22 21 20
26 26 26 26 26 25 26 26 26 26 26 25 25 24 23 23 21 20 19 18 17 15 14 15 16 16 17 17 15 14 14 14 13 12 11 9 8 7 7 6 5 6 9 11 11 11 12 13 15 17 19 21 23 24 24 23 22 23 25 26 26 27 27 28 27 27 27 27 26
26 26 26 26 26 26 26 26 26 26 25 25 25 24 22 20 18 16 15 15 15 15 17 19 19 19 19 19 17 17 18 18 17 16 15 13 11 9 8 6 4 2 2 5 7 9 12 15 18 20 22 23 25 26 26 25 24 24 25 26 27 28 28 29 30 30 30 30 29
Wind_Direction
193 193 192 190 189 188 187 187 186 186 186 188 191 193 192 189 187 186 185 183 182 182 183 185 185 185 184 184 184 183 185 189 193 193 188 183 182 182 184 187 190 193 197 199 201 200 198 196 196 198 201 200 200 204 207 203 195 193 196 204 211 214 213 211 212 213 213 213 212
192 192 191 189 188 186 185 185 185 185 187 190 192 193 193 191 188 187 187 186 186 185 184 183 184 185 185 186 187 188 189 193 196 195 190 187 186 185 185 187 190 193 195 197 198 196 194 193 193 195 197 198 198 202 206 206 200 198 202 210 215 214 212 213 215 216 216 215 213
192 192 192 192 189 186 184 184 185 187 189 191 193 194 194 193 190 188 187 187 187 186 184 182 183 184 185 185 187 188 191 194 196 196 193 191 190 189 189 189 190 193 195 196 195 194 193 191 191 191 193 195 196 200 203 205 203 203 207 213 214 213 212 214 218 221 221 218 216
192 191 190 190 190 188 186 184 186 188 190 191 193 194 195 195 193 190 189 188 187 186 185 184 183 183 183 184 184 185 188 191 194 195 194 193 192 191 191 192 192 194 196 196 196 194 193 191 189 188 190 192 194 196 199 201 201 204 208 212 212 212 213 216 220 224 224 223 220
191 190 190 190 189 189 187 187 188 189 190 191 193 194 195 196 195 193 190 188 187 187 187 186 184 183 183 183 182 183 185 188 191 194 195 195 193 191 191 192 194 195 197 196 195 194 193 191 189 187 188 190 192 194 196 196 197 200 205 210 211 212 214 217 221 224 226 226 224
191 191 190 191 190 189 189 189 190 190 190 191 192 193 194 195 196 195 193 191 190 189 189 188 185 184 184 184 184 183 185 187 190 193 195 195 194 191 190 191 194 196 196 195 192 192 191 191 189 189 190 192 193 195 197 197 196 199 203 207 210 212 215 218 221 224 226 227 226
191 191 191 191 191 190 189 190 190 189 190 192 193 194 194 195 196 196 196 195 193 193 193 193 189 185 185 187 187 187 187 188 190 192 193 194 194 193 192 193 194 196 196 194 191 191 191 189 189 190 193 195 195 197 199 200 200 201 203 206 209 212 216 219 222 225 227 228 227
192 192 191 191 191 189 189 190 189 189 190 191 193 194 195 196 197 198 198 197 196 196 197 197 192 188 188 192 192 191 190 190 190 191 191 193 194 194 195 195 195 196 195 193 190 189 188 188 188 190 193 196 197 199 201 203 203 203 204 207 210 213 216 220 223 226 228 229 227
192 192 192 191 190 189 189 190 190 191 191 193 194 195 196 197 197 198 198 198 197 199 200 199 194 191 191 195 196 195 194 193 192 192 191 191 192 194 195 195 196 195 194 192 189 187 185 185 187 189 192 196 198 199 201 203 205 205 207 209 212 215 218 221 224 227 229 230 228
190 190 190 189 188 188 188 189 191 191 192 194 195 196 197 197 198 198 199 200 200 202 202 198 194 194 194 195 197 198 198 196 195 194 193 193 193 193 194 195 195 194 192 190 188 186 184 184 185 187 190 193 195 197 200 202 204 206 208 211 214 216 220 222 225 228 230 230 228
188 188 187 186 186 187 187 188 190 192 193 195 195 196 197 197 198 199 200 201 201 202 201 196 194 195 196 197 198 200 200 198 197 197 197 196 195 194 194 195 194 193 191 189 187 185 184 185 185 186 188 191 194 196 199 203 205 208 210 213 215 218 220 223 225 227 229 230 229
186 186 186 185 186 186 187 188 190 192 193 194 195 196 197 198 199 199 200 199 200 199 197 195 194 195 196 197 198 199 199 199 198 198 199 199 197 196 195 195 194 193 192 190 188 187 186 186 187 188 189 192 195 199 202 206 208 211 214 217 219 220 222 223 224 226 228 229 229
185 184 184 185 186 187 188 189 191 192 193 194 196 196 197 198 199 199 199 197 196 195 194 194 194 195 195 196 196 197 197 197 198 198 199 200 199 197 196 196 195 194 193 192 191 190 189 189 190 191 192 194 198 202 206 209 212 214 217 220 223 224 225 225 226 227 228 229 229
184 184 184 184 185 186 188 190 192 193 194 196 197 197 198 199 200 200 198 197 195 194 193 193 194 196 197 197 196 196 196 196 196 197 198 199 199 198 197 197 197 196 195 195 195 194 194 194 195 196 197 198 201 205 209 212 215 217 219 222 224 226 227 228 229 229 230 230 230
183 184 184 184 184 186 188 191 194 196 196 197 199 199 199 200 201 200 199 198 197 196 196 195 195 197 198 199 198 198 197 196 196 196 196 198 198 198 198 198 198 198 197 197 198 198 199 200 200 201 202 203 205 208 211 213 216 219 221 223 224 225 227 229 231 232 232 232 231
183 184 185 184 185 186 189 192 195 197 198 198 199 199 199 199 200 200 200 199 198 198 198 198 198 198 198 199 199 199 198 197 196 195 195 195 196 197 197 197 198 198 198 199 200 201 202 204 204 205 206 207 209 211 213 215 217 220 222 223 224 225 227 229 231 233 234 234 233
186 186 186 186 186 188 190 192 195 196 197 198 199 199 198 198 199 199 199 199 199 199 200 200 200 199 198 198 199 199 199 198 197 196 194 194 196 196 196 196 197 197 198 199 200 202 203 205 206 207 208 210 211 213 215 216 219 221 223 224 224 225 226 227 229 231 233 234 234
190 189 188 188 189 190 191 192 194 195 196 197 197 197 198 198 197 198 199 200 200 200 201 201 201 200 198 196 197 198 198 197 197 197 196 195 195 196 195 195 196 197 197 198 200 201 203 205 206 207 209 210 212 214 215 217 219 222 223 224 224 224 224 225 226 228 230 231 232
192 191 190 189 190 191 191 192 192 194 195 196 196 196 197 198 198 198 199 200 201 202 202 202 202 201 199 197 196 196 197 197 198 198 197 196 195 195 195 195 197 197 197 198 200 201 203 204 205 206 207 209 211 213 215 217 219 222 223 223 223 222 222 222 223 224 225 226 227
193 192 191 191 190 191 192 191 191 192 194 196 195 196 197 198 199 200 200 200 202 204 204 203 202 200 199 197 196 196 196 197 197 198 198 198 197 196 195 195 196 198 199 200 200 201 202 203 203 204 205 207 209 212 214 217 219 221 222 223 222 221 220 220 221 221 221 222 222
193 191 189 189 188 189 190 191 191 192 193 194 195 196 198 199 200 201 202 203 203 204 204 203 202 200 198 198 197 196 196 196 196 196 197 198 198 198 198 197 198 198 200 201 201 201 202 202 202 203 204 206 209 212 215 217 219 220 221 221 221 220 219 220 220 221 222 222 223
189 188 186 186 187 187 189 190 191 192 193 195 196 197 198 200 201 203 204 205 204 203 203 203 202 200 199 198 198 197 197 196 196 196 196 197 199 200 200 200 200 201 202 202 203 203 203 203 203 204 205 208 211 214 217 219 220 221 221 221 221 221 221 221 223 225 227 228 229
183 183 183 185 186 188 189 191 192 193 195 196 197 198 199 200 202 203 205 205 204 204 204 204 203 203 201 201 200 199 199 198 198 197 197 196 197 198 200 201 202 202 203 204 205 205 205 205 206 207 209 211 214 217 220 222 224 224 223 222 222 222 222 223 225 227 230 231 232
181 181 182 185 187 189 191 192 194 195 196 197 198 199 199 201 201 202 202 203 204 204 204 204 205 204 204 203 202 201 201 200 200 200 200 199 197 197 198 199 201 202 203 205 205 206 206 206 208 210 212 214 217 220 224 226 226 225 223 221 220 221 222 223 225 227 229 230 231
184 184 185 188 190 192 194 194 194 195 196 198 199 199 200 200 200 200 201 202 204 205 205 204 205 204 204 204 203 203 203 202 202 202 202 202 200 199 197 198 199 201 202 204 205 206 207 208 209 210 213 215 219 222 225 227 226 223 220 217 216 217 218 220 222 224 226 228 229
187 187 189 192 194 194 193 194 195 196 197 198 198 199 199 200 200 200 201 202 204 205 205 204 204 204 203 203 203 203 203 203 203 203 203 204 203 202 201 200 200 201 202 203 205 206 207 209 210 211 212 214 217 220 223 224 222 218 214 212 212 212 214 216 219 221 224 226 227
189 189 190 193 194 193 192 193 195 196 196 197 197 198 198 199 200 200 200 202 203 204 204 204 203 203 203 203 203 203 203 203 204 205 205 205 205 204 204 203 203 204 205 206 207 208 208 209 210 210 210 211 213 215 216 216 214 212 210 209 209 211 212 215 219 222 224 226 228
189 190 189 190 191 191 191 192 193 194 195 196 196 197 197 198 198 199 199 201 202 202 202 202 203 203 203 203 204 204 203 204 204 205 206 206 206 206 206 207 207 208 210 211 211 211 211 210 210 210 209 208 208 209 210 210 210 210 210 211 212 214 216 219 223 226 229 232 234
188 188 187 187 188 190 190 191 192 193 194 195 195 196 196 196 197 198 198 199 200 200 200 201 201 202 203 203 204 205 205 205 206 206 206 207 207 207 208 209 210 212 215 216 216 215 214 213 212 211 210 209 208 208 209 210 212 214 216 218 221 223 225 228 230 233 236 239 241
186 185 185 185 186 187 189 190 192 193 195 195 195 195 194 194 196 197 198 198 198 199 200 201 201 201 203 205 205 205 206 207 207 207 208 208 208 209 209 210 212 215 217 219 219 219 217 216 215 215 214 214 214 214 216 218 220 223 227 231 235 237 238 239 241 242 244 245 246
186 186 186 185 186 187 188 190 192 193 194 195 195 194 194 195 196 197 199 199 200 201 202 202 201 203 204 206 206 206 207 208 209 209 210 210 211 211 212 212 213 216 218 221 222 222 221 221 220 220 221 221 222 223 224 225 228 231 235 238 241 242 243 243 244 245 245 246 247
187 187 187 187 187 187 188 189 191 192 193 194 195 195 196 197 198 199 201 201 202 202 202 201 202 203 205 206 207 208 209 210 210 211 212 213 214 214 215 215 216 217 219 221 222 223 224 224 225 226 227 228 228 227 227 227 229 229 229 228 229 230 231 231 232 233 235 235 235
188 188 188 188 188 188 189 189 190 192 193 195 196 197 197 198 199 200 201 202 202 201 201 201 202 203 205 206 207 209 210 212 212 213 215 216 216 217 218 218 218 219 220 221 222 222 223 225 226 228 229 229 229 227 224 222 219 213 204 197 196 196 196 199 202 203 206 213 215
189 189 189 190 189 189 189 190 191 192 193 195 197 198 199 199 200 201 201 202 202 202 202 203 204 205 206 207 208 209 211 213 214 215 216 217 218 219 220 220 219 220 221 222 222 223 224 225 226 227 227 228 226 222 216 210 201 189 176 166 166 166 165 167 174 179 182 186 191
189 189 190 190 190 190 190 190 191 192 194 196 198 199 200 201 201 201 202 202 202 202 203 205 206 206 207 209 210 212 213 214 216 217 218 219 220 221 220 219 219 219 220 222 223 224 225 225 226 226 226 225 220 212 202 194 182 174 168 156 155 154 152 152 157 163 167 168 170
189 189 190 190 191 191 191 191 191 192 194 196 198 200 201 202 203 203 203 202 202 203 204 205 206 206 207 208 210 212 214 214 214 214 214 215 217 218 218 215 215 217 220 222 224 225 226 226 226 225 223 217 206 195 186 181 173 166 159 150 145 141 136 132 134 140 146 148 152
189 189 190 190 191 191 191 191 191 193 194 197 199 200 201 202 203 204 203 202 202 202 203 203 204 204 203 199 193 184 176 180 187 193 197 200 202 205 206 204 206 213 219 223 225 226 226 226 226 224 218 204 190 181 175 167 160 153 143 132 126 122 118 117 116 118 120 125 132
190 190 190 190 190 191 191 191 192 193 195 197 199 200 201 202 202 202 202 202 201 201 202 203 201 197 187 175 161 143 124 121 133 147 162 172 176 180 186 191 203 213 219 223 225 227 228 228 228 224 215 200 187 176 167 156 147 139 130 122 115 110 107 107 105 103 102 103 112
190 191 191 191 191 191 192 192 193 194 196 197 198 199 200 200 201 201 201 201 202 201 200 196 186 173 161 151 144 130 117 117 122 128 133 138 144 159 174 189 206 217 222 224 227 229 230 229 226 220 211 199 186 175 164 153 144 132 123 116 110 105 102 100 98 96 94 94 98
191 192 192 192 192 192 193 194 195 196 196 197 197 197 198 198 199 200 201 199 196 190 179 165 152 145 143 140 136 122 108 107 108 110 110 110 118 135 154 172 195 221 231 229 228 226 221 213 207 204 199 190 181 171 161 152 143 129 118 112 107 103 98 95 93 92 90 89 89
192 192 193 193 193 194 194 195 196 196 196 196 196 196 195 195 195 194 189 180 170 159 148 139 137 136 135 133 129 118 104 96 93 92 93 95 99 106 112 112 115 136 197 206 194 184 177 175 178 182 183 178 172 165 158 150 142 130 118 109 106 102 97 92 90 88 87 85 83
Height
691 693 694 695 697 698 699 700 702 703 704 706 708 709 710 711 712 713 714 715 716 718 719 721 722 723 724 726 728 730 733 736 738 739 741 741 742 744 747 749 752 754 756 757 759 761 763 764 766 768 770 770 771 774 776 777 778 779 782 785 788 790 791 792 792 792 792 792 793
690 691 693 694 696 697 698 699 701 702 704 705 707 708 709 710 711 712 713 714 716 717 719 720 721 722 724 725 728 730 733 735 737 738 740 741 742 744 745 748 750 752 754 756 758 759 761 762 764 766 768 768 769 772 774 776 777 779 782 785 787 788 789 790 790 790 790 791 791
689 690 692 694 695 696 697 698 699 701 703 704 706 707 709 709 710 711 712 714 715 717 718 719 720 722 723 725 727 729 732 734 736 737 739 740 741 743 744 746 748 750 753 755 756 758 759 760 762 764 765 766 768 770 773 775 777 779 782 784 786 787 788 788 788 789 789 790 790
688 689 691 692 693 694 695 696 698 700 702 704 705 707 708 709 710 711 712 713 714 716 717 718 719 721 722 724 726 728 730 733 734 736 738 739 740 741 743 745 747 749 751 753 755 756 757 759 760 762 764 765 767 769 772 774 776 779 781 783 784 785 786 786 787 787 788 789 789
687 688 689 690 691 693 694 695 697 699 701 703 704 706 707 708 709 710 711 713 714 715 716 717 718 720 722 723 725 727 729 731 733 734 736 738 739 740 742 744 746 748 750 752 753 754 756 757 759 761 763 765 767 769 771 773 775 777 779 781 783 784 784 785 785 786 787 787 788
685 687 688 689 690 692 693 694 696 698 700 702 703 704 706 707 708 709 710 711 713 714 715 717 718 719 720 722 724 726 728 729 731 733 734 736 738 739 741 743 745 747 749 750 751 752 754 755 758 760 763 764 766 768 769 771 773 775 777 779 781 782 783 784 784 785 786 786 787
684 686 687 689 690 691 693 694 695 697 699 701 702 703 704 705 707 708 709 710 712 713 715 716 717 718 719 721 723 725 727 728 730 732 733 735 737 738 740 742 744 746 747 748 749 751 752 754 756 759 761 763 764 765 767 769 771 774 775 777 779 780 781 782 783 784 784 785 785
684 685 686 688 689 690 692 693 695 697 698 700 701 702 703 704 705 707 708 709 711 712 714 716 716 717 718 720 722 724 726 727 729 731 732 734 735 737 739 741 743 744 746 747 748 749 750 752 754 757 759 760 762 763 765 768 770 772 774 775 777 778 779 781 781 782 783 783 784
683 684 685 687 688 689 691 692 694 696 697 699 699 701 702 703 704 706 707 708 709 711 713 714 715 716 718 719 721 723 725 726 728 729 731 733 734 736 738 740 742 743 744 745 746 747 748 750 752 754 756 758 759 762 764 767 769 770 772 774 775 776 778 779 780 780 781 781 782
682 683 684 686 687 689 690 692 693 695 696 698 699 700 701 702 704 705 706 707 708 710 712 713 714 716 717 719 720 722 724 725 727 729 730 732 733 735 737 739 740 741 742 743 744 745 746 748 750 752 754 756 758 760 763 765 767 769 770 772 774 775 776 777 778 779 779 780 780
680 682 683 685 686 688 689 691 693 694 695 697 698 699 700 702 703 704 705 706 708 709 710 711 713 714 716 717 719 720 722 724 726 728 729 730 732 733 735 737 738 739 740 741 742 743 744 746 748 750 752 754 757 759 762 764 766 768 769 770 772 773 774 775 776 777 778 778 779
679 681 682 684 685 687 689 690 692 693 695 696 697 698 699 701 702 703 704 706 707 708 709 710 712 713 714 716 717 719 721 723 724 726 728 729 730 732 734 735 737 738 739 740 741 741 743 744 746 748 750 753 756 758 761 763 764 766 767 769 770 772 773 774 774 776 776 777 777
678 680 681 683 684 686 688 689 691 692 694 695 696 697 699 700 701 703 704 705 706 707 709 710 711 712 713 714 716 718 719 721 723 724 726 727 729 731 733 734 735 737 738 739 739 740 741 743 744 746 749 751 754 756 759 760 762 764 765 767 768 770 771 772 773 774 775 775 776
677 679 680 682 684 685 687 689 690 691 693 694 695 696 698 699 700 702 703 704 705 706 708 709 710 711 712 714 715 716 718 719 721 722 724 725 727 729 731 733 734 735 737 738 739 739 741 742 744 745 747 749 751 754 756 758 760 761 763 765 766 767 769 769 771 772 773 773 773
676 678 679 681 682 684 686 688 689 691 692 693 694 696 697 698 699 701 702 703 704 706 707 708 709 710 712 713 714 715 717 718 720 721 722 724 725 727 729 731 733 734 735 737 738 739 740 741 743 744 746 748 749 752 754 756 758 760 762 763 764 765 766 767 769 770 770 771 771
675 677 679 680 681 683 684 686 688 689 691 692 694 695 696 697 699 700 701 703 704 705 706 707 708 709 711 712 713 714 716 717 719 720 721 723 724 726 727 729 730 732 734 735 737 738 739 740 742 743 745 746 748 750 752 754 756 758 760 761 762 763 764 765 767 768 768 769 769
674 676 677 679 680 682 683 685 687 688 689 691 692 694 695 696 698 699 700 701 703 704 705 706 707 709 710 711 712 713 714 716 717 719 720 721 723 724 726 727 729 730 732 734 735 737 738 739 741 743 744 746 748 749 751 753 755 757 758 759 760 761 762 763 764 765 766 767 768
674 675 676 678 679 680 682 684 685 687 688 689 691 693 694 695 696 698 699 700 702 703 704 705 707 708 709 710 711 712 713 714 716 717 719 720 721 723 724 726 727 729 730 732 733 735 737 738 740 742 744 745 747 749 750 752 754 755 757 758 759 759 760 761 762 764 764 765 766
672 674 675 676 678 679 680 682 684 685 687 688 690 691 693 694 695 697 698 699 701 702 704 705 706 707 708 709 710 711 712 713 714 716 717 719 720 721 723 724 726 728 729 730 732 734 735 737 739 741 743 744 746 748 749 751 752 754 755 756 757 758 758 759 760 761 763 764 764
671 672 673 675 676 678 679 681 682 684 685 687 689 690 691 693 694 696 697 699 700 701 703 704 705 706 707 708 709 710 711 712 714 715 716 717 719 720 722 723 725 726 728 729 731 732 734 735 737 739 741 743 744 746 747 749 750 751 753 754 755 756 756 757 758 759 760 761 762
669 670 672 674 675 677 678 680 682 683 684 686 688 689 690 692 693 694 696 697 699 700 702 703 704 705 706 707 709 710 711 712 713 714 715 716 718 719 720 722 724 725 726 728 729 731 732 734 735 737 739 740 742 744 745 746 748 749 750 752 753 754 754 755 756 757 758 758 759
668 669 671 673 674 676 677 679 681 683 684 685 686 688 689 691 692 694 695 696 698 699 701 702 703 704 705 706 708 709 710 711 713 714 715 716 717 718 719 721 722 724 725 727 728 730 731 732 734 735 737 739 740 742 743 744 746 747 749 749 750 751 752 753 754 754 755 756 757
667 669 670 672 674 675 677 679 680 682 683 684 686 687 688 690 691 693 694 696 697 699 700 701 702 704 704 706 707 708 709 711 712 713 714 715 716 717 719 720 721 723 724 725 727 729 730 731 733 734 736 737 739 740 741 743 744 745 747 747 748 749 750 751 752 752 753 754 754
666 668 669 671 673 674 676 678 679 681 682 684 685 686 688 689 690 692 694 695 696 697 699 700 701 703 704 705 706 707 709 710 711 712 714 714 715 717 718 719 720 721 723 724 725 727 728 730 731 733 734 736 737 738 740 741 743 744 744 745 746 747 748 749 749 750 750 751 752
665 667 669 670 672 674 675 677 678 680 681 683 684 685 687 688 689 691 693 694 695 696 698 699 700 702 703 704 705 707 708 709 710 711 713 714 715 716 717 718 719 720 721 723 724 725 727 728 729 731 733 734 735 737 739 740 741 742 743 743 744 745 746 747 748 748 749 749 750
664 666 668 669 671 673 674 676 677 679 680 682 683 684 686 687 689 690 692 693 694 695 697 698 699 701 702 703 704 705 707 708 709 710 711 713 714 715 716 717 718 719 720 721 723 724 725 726 728 729 731 733 734 736 737 739 740 740 741 741 742 743 744 745 745 746 747 748 749
664 665 667 669 670 672 673 674 676 678 679 681 682 684 685 686 688 689 691 692 693 694 696 697 699 700 701 702 703 704 706 707 708 709 710 711 713 714 715 716 717 718 719 720 722 723 724 725 727 728 729 731 733 734 736 737 738 739 739 740 741 741 742 743 744 744 745 746 747
663 664 666 668 669 670 672 674 675 677 679 680 681 683 684 685 687 689 690 691 692 694 695 696 698 699 700 701 702 703 704 706 707 708 709 711 712 713 714 715 716 717 718 719 720 722 723 724 725 727 728 730 732 733 734 735 736 737 738 739 739 740 741 741 742 743 744 745 746
662 664 665 667 668 669 671 673 674 676 678 679 680 682 683 684 686 687 689 690 691 693 694 695 697 698 699 700 701 703 704 705 706 708 709 710 711 712 713 714 715 716 717 718 719 721 722 723 724 726 727 729 730 732 733 734 735 736 737 738 738 739 740 741 741 742 743 744 745
661 663 664 665 667 669 670 672 674 675 677 679 680 681 683 684 685 686 688 689 690 691 693 694 696 697 698 699 700 702 703 704 705 707 708 709 710 712 713 714 714 715 716 718 719 720 721 722 724 725 726 728 729 730 732 733 734 735 736 737 738 739 739 740 741 741 742 743 744
660 662 664 665 666 668 669 671 673 675 676 678 679 681 682 683 684 685 687 688 689 690 692 693 695 696 697 699 700 701 702 704 705 706 707 708 709 711 712 713 714 715 716 717 718 719 720 721 723 724 725 727 729 730 731 733 734 735 737 737 738 738 739 739 740 741 741 742 743
660 661 663 664 666 667 669 670 672 674 676 677 679 680 681 682 683 684 686 687 689 690 691 693 694 695 696 698 699 700 702 703 704 705 706 707 709 710 711 712 714 715 716 717 718 719 720 721 723 724 725 727 728 729 731 733 734 735 736 736 737 737 738 739 739 740 741 742 742
659 660 662 664 665 667 669 670 672 674 675 677 678 679 680 681 683 684 685 687 688 689 690 692 693 694 696 697 698 699 701 702 703 704 705 706 708 709 710 711 713 714 715 716 717 718 719 721 722 724 725 726 728 729 732 734 734 734 734 735 736 737 738 738 739 739 740 741 741
658 659 661 663 664 666 668 669 671 673 674 676 677 678 679 681 682 684 685 686 687 689 690 691 692 694 695 696 698 699 700 701 702 703 704 705 707 708 709 711 712 714 714 715 716 717 719 720 721 723 724 726 728 730 732 733 733 733 734 735 736 737 737 738 739 739 739 740 740
657 658 660 662 663 665 667 668 670 672 673 675 676 678 679 680 681 683 684 685 687 688 690 691 692 694 695 696 697 699 699 700 702 703 704 705 706 707 709 710 711 712 712 713 714 716 717 719 720 722 724 725 727 729 731 731 732 733 733 734 735 736 737 737 738 739 739 739 739
655 657 659 660 662 664 665 667 669 670 672 674 675 676 678 679 681 682 684 685 687 688 689 691 692 694 695 697 698 699 700 701 702 703 704 705 706 707 708 709 710 710 711 712 713 714 716 718 719 721 723 724 726 727 729 730 731 732 733 734 735 735 736 737 738 738 739 739 739
654 655 657 659 660 662 664 665 667 669 670 672 674 675 677 679 680 682 684 685 687 688 689 690 692 694 695 697 699 700 700 701 701 702 702 703 704 706 707 708 709 709 709 711 712 713 715 716 718 720 721 723 724 725 727 729 730 731 733 734 735 736 736 737 738 739 739 740 740
653 654 656 657 659 660 662 664 666 667 669 670 672 674 676 678 679 681 683 684 686 687 689 690 692 694 695 697 697 698 699 699 700 701 702 703 704 705 706 707 707 708 709 710 711 713 714 715 717 718 719 721 722 724 726 728 729 731 732 734 735 736 737 738 738 739 740 740 741
652 653 655 656 658 659 661 663 664 666 667 669 671 673 675 677 679 681 682 684 686 688 689 691 693 694 694 695 696 698 699 700 700 701 702 703 704 705 705 706 707 707 708 709 710 712 713 714 715 716 718 719 720 722 724 727 729 731 733 734 735 736 738 738 739 739 740 741 741
651 652 654 655 657 659 660 661 663 664 666 668 670 672 674 676 679 681 683 685 686 688 689 690 691 692 693 694 696 698 699 700 700 701 702 703 704 704 705 706 707 708 708 709 710 711 712 713 714 715 716 717 719 720 723 725 729 731 733 734 735 737 738 739 740 740 741 742 742
650 652 653 654 656 658 659 661 662 664 666 668 670 672 674 677 679 681 683 684 685 686 688 689 691 692 694 695 697 699 700 700 702 702 703 704 704 705 706 707 708 708 709 709 710 711 712 713 714 714 714 716 717 719 721 724 728 731 734 735 736 737 739 740 741 741 742 743 743